Date String (YYYY-MM-DD hh:mm:ss) UTC,Instrument flags,absolute air pressure of the measurement (hPa),sample flow rate (lpm),inlet stack bypass flow (lpm),air temperature of the measurement (°C),ambient temperature measured by the external sensor (°C),aerosol sample conditioner tube jacket temperature (°C),OPC LED temperature (°C),internal box temperature (°C),relative humidity of the measurement (%),span deviation,mass concentration of particles derived from Lorenz-Mie calculation of OPC scattering (μg/m³),mass concentration of particles derived from Lorenz-Mie calculation of OPC scattering (μg/m³),mass concentration of particles derived from Lorenz-Mie calculation of OPC scattering (μg/m³)
DateTimeUTC,F1_M11,P_M11,Q1_M11,Q2_M11,T1_M11,T2_M11,T3_M11,T4_M11,T5_M11,U1_M11,ZSPAN_M11,X0_M11,X2_M11,X1_M11
2023-09-12 04:00:00,SystemResetWarning,0836.3,4.99,000.00,028.5,027.4,000.0,036.8,030.2,28.5,-001.0,0009.46,0005.28,0004.98
2023-09-12 04:01:00,SystemResetWarning,0836.3,5.00,000.00,028.6,027.4,000.0,036.8,030.2,28.3,-001.2,0009.49,0005.27,0004.96
2023-09-12 04:02:00,SystemResetWarning,0836.3,5.01,000.00,028.6,027.4,000.0,036.9,030.2,28.3,-001.1,0009.43,0005.25,0004.95
2023-09-12 04:03:00,SystemResetWarning,0836.3,5.00,000.00,028.6,027.4,000.0,036.9,030.2,28.5,-000.9,0009.27,0005.21,0004.92
2023-09-12 04:04:00,SystemResetWarning,0836.3,5.00,000.00,028.6,027.5,000.0,036.9,030.3,28.5,-000.8,0009.10,0005.19,0004.91
2023-09-12 04:05:00,SystemResetWarning,0836.3,5.00,000.00,028.7,027.5,000.0,036.9,030.3,28.3,-001.6,0008.81,0005.18,0004.90
2023-09-12 04:06:00,SystemResetWarning,0836.3,5.00,000.00,028.7,027.5,000.0,036.9,030.3,28.0,-001.4,0008.76,0005.18,0004.88
2023-09-12 04:07:00,SystemResetWarning,0836.3,4.99,000.00,028.7,027.1,000.0,036.9,030.3,27.8,-001.5,0008.73,0005.17,0004.88
2023-09-12 04:08:00,SystemResetWarning,0836.2,4.99,000.00,028.6,025.3,000.0,036.8,029.9,27.9,-001.3,0008.73,0005.18,0004.87
2023-09-12 04:09:00,SystemResetWarning,0836.2,5.00,000.00,028.6,024.4,000.0,036.8,029.8,27.8,-001.2,0008.70,0005.17,0004.87
2023-09-12 04:10:00,SystemResetWarning,0836.2,5.01,000.00,028.4,024.3,000.0,036.8,029.6,28.1,-001.4,0008.39,0005.15,0004.86
2023-09-12 04:11:00,SystemResetWarning,0836.2,5.00,000.00,028.3,024.6,000.0,036.7,029.4,28.3,-001.4,0008.20,0005.18,0004.87
2023-09-12 04:12:00,SystemResetWarning,0836.2,4.99,000.00,028.2,025.0,000.0,036.7,029.5,28.5,-001.3,0008.20,0005.18,0004.87
2023-09-12 04:13:00,SystemResetWarning,0836.2,5.00,000.00,028.2,025.4,000.0,036.7,029.5,28.8,-001.8,0008.12,0005.14,0004.84
2023-09-12 04:14:00,SystemResetWarning,0836.2,5.01,000.00,028.2,025.7,000.0,036.7,029.5,28.7,-001.8,0008.11,0005.13,0004.83
2023-09-12 04:15:00,SystemResetWarning,0836.2,4.99,000.00,028.2,026.0,000.0,036.7,029.6,28.7,-001.7,0008.10,0005.13,0004.83
2023-09-12 04:16:00,SystemResetWarning,0836.2,4.99,000.00,028.2,026.2,000.0,036.7,029.6,28.7,-001.4,0008.20,0005.11,0004.81
2023-09-12 04:17:00,SystemResetWarning,0836.2,4.99,000.00,028.2,026.4,000.0,036.7,029.7,28.5,-001.8,0008.15,0005.09,0004.82
2023-09-12 04:18:00,SystemResetWarning,0836.2,5.01,000.00,028.2,026.6,000.0,036.7,029.8,28.3,-001.6,0008.18,0005.08,0004.80
2023-09-12 04:19:00,SystemResetWarning,0836.2,5.01,000.00,028.2,026.7,000.0,036.6,029.8,28.2,-001.2,0008.18,0005.06,0004.78
2023-09-12 04:20:00,SystemResetWarning,0836.2,5.01,000.00,028.2,026.8,000.0,036.7,029.8,28.4,-000.7,0008.26,0005.08,0004.78
2023-09-12 04:21:00,SystemResetWarning,0836.2,5.00,000.00,028.2,026.9,000.0,036.7,029.8,28.5,-000.3,0008.26,0005.09,0004.79
2023-09-12 04:22:00,SystemResetWarning,0836.2,4.99,000.00,028.3,026.9,000.0,036.7,029.9,28.4,-000.0,0008.21,0005.08,0004.78
2023-09-12 04:23:00,SystemResetWarning,0836.2,5.00,000.00,028.3,027.0,000.0,036.7,029.9,28.3,0001.0,0008.16,0005.07,0004.79
2023-09-12 04:24:00,SystemResetWarning,0836.1,4.99,000.00,028.3,027.1,000.0,036.7,030.0,28.5,0001.5,0008.17,0005.08,0004.80
2023-09-12 04:25:00,SystemResetWarning,0836.1,5.01,000.00,028.4,027.1,000.0,036.7,030.0,28.4,0001.6,0008.26,0005.11,0004.80
2023-09-12 04:26:00,SystemResetWarning,0836.1,5.00,000.00,028.4,027.2,000.0,036.7,030.0,28.3,0001.5,0008.25,0005.11,0004.79
2023-09-12 04:27:00,SystemResetWarning,0836.1,5.01,000.00,028.4,027.2,000.0,036.7,030.0,28.3,0001.6,0007.95,0005.11,0004.79
2023-09-12 04:28:00,SystemResetWarning,0836.1,5.00,000.00,028.4,027.2,000.0,036.7,030.1,28.5,0002.0,0007.85,0005.10,0004.77
2023-09-12 04:29:00,SystemResetWarning,0836.1,4.99,000.00,028.4,027.3,000.0,036.7,030.1,28.6,0001.9,0007.93,0005.08,0004.77
2023-09-12 04:30:00,SystemResetWarning,0836.1,5.00,000.00,028.5,027.3,000.0,036.8,030.1,28.4,0002.0,0008.02,0005.08,0004.78
2023-09-12 04:31:00,SystemResetWarning,0836.1,4.99,000.00,028.5,027.3,000.0,036.8,030.2,28.4,0001.5,0007.96,0005.06,0004.78
2023-09-12 04:32:00,SystemResetWarning,0836.1,5.00,000.00,028.5,027.3,000.0,036.8,030.2,28.4,0001.0,0008.00,0005.07,0004.77
2023-09-12 04:33:00,SystemResetWarning,0836.1,5.00,000.00,028.5,027.4,000.0,036.8,030.2,28.2,0000.9,0007.96,0005.07,0004.77
2023-09-12 04:34:00,SystemResetWarning,0836.1,5.01,000.00,028.6,027.4,000.0,036.8,030.2,27.9,0000.6,0007.96,0005.07,0004.77
2023-09-12 04:35:00,SystemResetWarning,0836.1,4.99,000.00,028.6,027.4,000.0,036.8,030.2,27.9,0000.3,0007.94,0005.05,0004.76
2023-09-12 04:36:00,SystemResetWarning,0836.1,5.00,000.00,028.6,027.4,000.0,036.9,030.2,27.8,0000.2,0008.23,0005.03,0004.75
2023-09-12 04:37:00,SystemResetWarning,0836.1,4.99,000.00,028.6,027.4,000.0,036.9,030.3,27.7,0000.2,0008.35,0005.02,0004.76
2023-09-12 04:38:00,SystemResetWarning,0836.1,4.99,000.00,028.6,027.4,000.0,036.9,030.3,27.6,0000.4,0008.37,0005.03,0004.76
2023-09-12 04:39:00,SystemResetWarning,0836.1,5.00,000.00,028.7,027.5,000.0,036.9,030.3,27.7,0000.2,0008.37,0005.03,0004.78
2023-09-12 04:40:00,SystemResetWarning,0836.1,5.00,000.00,028.7,027.5,000.0,036.9,030.3,27.7,0000.1,0008.28,0005.04,0004.79
2023-09-12 04:41:00,SystemResetWarning,0836.1,5.00,000.00,028.7,027.5,000.0,036.9,030.3,27.7,-000.3,0008.14,0005.05,0004.80
2023-09-12 04:42:00,SystemResetWarning,0836.1,5.00,000.00,028.7,027.5,000.0,037.0,030.4,27.6,-000.7,0008.09,0005.03,0004.78
2023-09-12 04:43:00,SystemResetWarning,0836.1,5.00,000.00,028.7,027.5,000.0,037.0,030.4,27.4,-000.5,0008.24,0005.01,0004.78
2023-09-12 04:44:00,SystemResetWarning,0836.1,5.00,000.00,028.8,027.5,000.0,037.0,030.4,27.4,-000.1,0008.77,0005.01,0004.78
2023-09-12 04:45:00,SystemResetWarning,0836.1,5.00,000.00,028.8,027.5,000.0,037.0,030.4,27.3,0000.2,0008.79,0005.01,0004.78
2023-09-12 04:46:00,SystemResetWarning,0836.1,4.99,000.00,028.8,026.1,000.0,036.9,030.2,27.3,0000.6,0009.20,0005.02,0004.79
2023-09-12 04:47:00,SystemResetWarning,0836.1,5.01,000.00,028.7,024.6,000.0,036.9,029.9,27.4,0000.9,0009.19,0005.01,0004.79
2023-09-12 04:48:00,SystemResetWarning,0836.1,5.00,000.00,028.6,024.3,000.0,036.8,029.7,27.4,0001.0,0009.01,0005.00,0004.78
2023-09-12 04:49:00,SystemResetWarning,0836.1,5.00,000.00,028.4,024.5,000.0,036.8,029.5,27.6,0001.2,0009.00,0004.99,0004.77
2023-09-12 04:50:00,SystemResetWarning,0836.1,5.00,000.00,028.3,024.8,000.0,036.8,029.5,27.7,0001.4,0009.11,0005.02,0004.76
2023-09-12 04:51:00,SystemResetWarning,0836.1,5.01,000.00,028.3,025.2,000.0,036.8,029.5,27.7,0001.5,0009.20,0005.03,0004.75
2023-09-12 04:52:00,SystemResetWarning,0836.1,5.01,000.00,028.2,025.6,000.0,036.8,029.5,27.7,0001.6,0009.24,0005.05,0004.75
2023-09-12 04:53:00,SystemResetWarning,0836.1,4.99,000.00,028.2,025.8,000.0,036.8,029.6,27.8,0001.9,0009.30,0005.07,0004.76
2023-09-12 04:54:00,SystemResetWarning,0836.1,5.00,000.00,028.2,026.1,000.0,036.7,029.6,27.8,0002.1,0009.23,0005.07,0004.77
2023-09-12 04:55:00,SystemResetWarning,0836.1,5.00,000.00,028.2,026.3,000.0,036.7,029.7,27.9,0002.3,0008.52,0005.05,0004.77
2023-09-12 04:56:00,SystemResetWarning,0836.2,5.00,000.00,028.2,026.5,000.0,036.7,029.8,28.1,0002.0,0008.66,0005.07,0004.77
2023-09-12 04:57:00,SystemResetWarning,0836.2,4.99,000.00,028.2,026.6,000.0,036.7,029.8,29.6,0001.6,0008.50,0005.07,0004.77
2023-09-12 04:58:00,SystemResetWarning,0836.2,4.99,000.00,028.3,026.8,000.0,036.7,029.9,30.3,0001.2,0008.26,0005.09,0004.79
2023-09-12 04:59:00,SystemResetWarning,0836.2,5.00,000.00,028.3,026.9,000.0,036.7,029.9,29.8,0001.2,0008.38,0005.12,0004.80
